EDT,Max TemperatureF,Mean TemperatureF,Min TemperatureF,Max Dew PointF,MeanDew PointF,Min DewpointF,Max Humidity, Mean Humidity, Min Humidity, Max Sea Level PressureIn, Mean Sea Level PressureIn, Min Sea Level PressureIn, Max VisibilityMiles, Mean VisibilityMiles, Min VisibilityMiles, Max Wind SpeedMPH, Mean Wind SpeedMPH, Max Gust SpeedMPH,PrecipitationIn, CloudCover, Events, WindDirDegrees
2013-10-1,80,65,50,58,54,48,93,70,47,30.04,29.97,29.91,10,10,5,14,4,18,0.00,1,,296
2013-10-2,83,70,57,61,58,55,87,65,43,30.01,29.97,29.93,10,9,5,14,5,22,0.00,0,,287
2013-10-3,79,69,58,60,57,54,90,68,45,30.11,30.06,30.02,10,9,7,12,3,16,0.00,0,,240
2013-10-4,86,73,59,64,61,56,90,67,44,30.06,30.01,29.96,10,9,4,12,3,15,0.00,1,,260
2013-10-5,82,74,65,66,64,61,87,73,58,30.07,30.03,29.99,10,8,4,13,4,15,0.00,3,,110
2013-10-6,78,72,65,68,65,63,100,85,69,30.08,30.03,29.98,8,4,1,13,6,17,0.11,7,Rain,110
2013-10-7,80,67,54,70,64,47,93,80,67,29.99,29.88,29.75,10,6,1,25,9,38,0.60,7,Rain,196
2013-10-8,67,58,48,48,45,41,86,63,40,30.30,30.20,30.02,10,10,10,15,6,22,0.00,0,,355
2013-10-9,62,57,51,49,45,39,72,66,60,30.35,30.30,30.24,10,10,10,18,9,26,0.00,2,,46
2013-10-10,60,56,52,55,51,46,93,83,72,30.23,30.13,30.01,10,9,2,20,13,28,0.24,7,Rain,39
2013-10-11,65,62,58,61,57,53,93,86,78,30.06,30.00,29.97,10,7,1,20,13,30,0.50,8,Rain,45
2013-10-12,72,65,58,57,51,40,73,59,45,30.23,30.13,30.03,10,10,10,21,13,30,0.00,7,,63
2013-10-13,66,58,50,52,49,46,89,69,48,30.36,30.31,30.22,10,10,10,21,10,26,0.00,4,,71
2013-10-14,69,58,47,50,48,45,93,71,48,30.35,30.30,30.22,10,10,10,12,4,15,0.00,1,,34
2013-10-15,72,59,46,53,46,35,93,61,28,30.24,30.17,30.10,10,10,7,13,5,22,0.00,0,,50
2013-10-16,67,60,52,58,54,48,93,81,68,30.10,30.03,29.91,10,10,5,9,3,14,0.00,5,,58
2013-10-17,72,66,60,63,60,57,97,82,66,29.93,29.83,29.69,10,7,2,20,6,31,0.03,7,Rain,197
2013-10-18,66,56,46,63,44,40,77,60,42,29.99,29.87,29.71,10,10,10,20,9,29,T,2,,284
2013-10-19,63,53,42,54,46,39,89,71,52,29.99,29.87,29.76,10,9,2,13,5,18,0.12,3,Rain,211
2013-10-20,62,52,42,51,38,32,96,64,32,30.07,29.95,29.78,10,10,7,20,8,28,0.00,0,,284
2013-10-21,66,53,39,44,38,35,86,60,34,30.15,30.07,29.98,10,10,9,15,5,25,0.00,0,,214
2013-10-22,66,54,42,49,43,32,93,71,48,29.96,29.83,29.77,10,9,5,15,6,26,0.01,2,Rain,265
2013-10-23,57,49,41,39,35,32,70,61,51,29.80,29.72,29.60,10,10,10,18,8,28,T,5,Rain,346
2013-10-24,53,45,37,34,30,25,85,61,36,30.04,29.92,29.79,10,10,10,20,9,29,0.00,2,,278
2013-10-25,54,45,35,33,30,27,75,57,38,30.24,30.14,30.04,10,10,10,18,9,30,0.00,1,,290
2013-10-26,55,43,31,33,29,26,85,60,35,30.24,30.09,29.90,10,10,9,23,7,32,0.00,1,,242
2013-10-27,58,48,38,34,30,28,64,49,33,30.14,29.98,29.88,10,10,10,18,8,28,0.00,2,,287
2013-10-28,62,46,30,34,32,27,85,60,34,30.29,30.21,30.13,10,10,10,14,5,21,0.00,0,,311
2013-10-29,59,50,40,39,35,30,76,58,40,30.39,30.34,30.30,10,10,10,12,4,18,0.00,1,,30
2013-10-30,59,50,40,52,43,35,93,82,71,30.32,30.25,30.17,10,9,5,12,3,14,0.00,6,,193
2013-10-31,69,60,51,59,54,49,93,80,66,30.20,30.05,29.80,10,6,2,18,6,23,0.04,7,Rain,188